RH
17 17 16 16 15 15 14 13 13 12 12 12 11 11 10 10 10 10 9 9 9 9 9 8 8 8 8 7 7 7 7 6 6 6 5 5 5 5 5 5 5 5 5 5 5 5 5 5 5 5 5 5 6 6 6 7 8 9 10 11 13 15 18 20 22 24 27 31 37 43 49 53 54 55 55 57 61 66 74 80 83 83 81 79 80 82
18 17 17 17 16 16 15 15 14 14 13 13 12 12 11 11 11 10 10 10 9 9 9 9 9 8 8 8 8 7 7 7 7 6 6 6 6 5 5 5 5 5 5 5 5 5 5 5 5 5 5 5 5 6 6 7 7 8 9 10 12 14 16 18 20 22 24 27 31 36 42 48 52 56 59 61 63 66 69 75 80 82 82 80 79 79
18 18 18 17 17 17 16 16 15 15 14 14 13 13 13 12 12 11 11 10 10 10 10 9 9 9 9 9 8 8 8 7 7 7 6 6 6 6 6 5 5 5 5 5 5 5 5 5 5 5 5 5 5 5 6 6 7 7 8 9 10 12 14 16 18 20 22 24 26 30 35 41 46 52 58 63 66 67 68 72 76 80 81 80 78 77
19 18 18 18 18 17 17 16 16 16 15 15 14 14 14 13 13 12 12 11 11 11 10 10 10 10 10 9 9 9 9 8 8 7 7 7 7 6 6 6 6 6 6 5 5 5 5 5 5 5 5 5 5 5 5 6 6 7 7 8 9 11 12 14 16 18 20 21 23 26 29 34 40 47 55 62 66 68 69 72 75 78 79 79 78 76
21 20 19 19 18 18 18 17 17 16 16 16 16 15 15 14 14 13 13 13 12 12 11 11 11 10 10 10 10 9 9 9 8 8 8 8 7 7 7 6 6 6 6 6 6 6 5 5 5 5 5 5 5 5 5 5 6 6 7 7 8 9 10 12 14 16 18 20 22 25 28 32 37 43 51 59 65 68 69 72 75 77 79 80 80 79
22 21 21 20 20 19 18 18 17 17 17 17 17 16 16 15 15 15 14 14 13 13 13 12 12 11 11 11 10 10 10 9 9 9 8 8 8 8 7 7 7 6 6 6 6 6 6 6 6 5 5 5 5 5 5 5 5 5 6 7 7 8 9 10 12 14 16 19 23 27 31 35 40 45 51 58 63 66 67 70 73 76 80 83 84 84
21 22 22 22 21 21 20 19 18 18 18 17 17 17 17 16 16 16 15 15 14 14 14 13 13 13 12 12 11 11 10 10 10 9 9 9 9 8 8 8 7 7 7 6 6 6 6 6 6 6 6 6 5 5 5 5 5 5 5 6 6 7 8 9 10 12 14 18 22 28 34 40 45 50 55 60 63 65 65 67 70 75 81 84 85 85
19 20 21 22 22 22 22 21 20 19 19 18 18 18 18 17 17 17 16 16 16 15 15 15 14 14 13 13 12 12 11 11 11 10 10 10 9 9 9 8 8 8 7 7 7 7 7 6 6 6 6 6 6 6 5 5 5 5 5 5 6 6 7 7 9 10 12 15 20 26 33 41 48 54 60 64 66 67 66 65 68 74 82 85 85 85
17 18 18 19 21 22 22 22 22 21 21 20 19 18 18 18 18 18 18 17 17 16 16 16 16 15 15 14 13 13 12 12 12 11 11 10 10 10 9 9 9 8 8 8 7 7 7 7 7 7 7 7 6 6 6 6 5 5 5 5 5 6 6 6 7 9 10 13 18 23 30 38 46 54 61 67 70 71 69 66 66 71 80 84 85 85
16 16 16 17 18 19 21 22 22 22 22 22 21 20 19 19 18 18 18 18 18 18 17 17 17 17 16 15 15 14 14 13 13 12 12 11 11 11 10 10 10 9 9 8 8 8 8 7 7 7 7 7 7 7 7 6 6 6 5 5 5 5 5 6 6 7 9 11 15 20 26 35 44 53 61 69 74 76 74 69 66 67 75 83 85 85
15 15 16 16 16 17 18 19 20 21 22 23 23 22 22 21 20 19 19 19 19 19 19 18 18 18 18 17 16 16 15 14 14 13 13 12 12 11 11 11 10 10 10 9 9 8 8 8 8 8 8 8 8 8 8 7 7 7 6 6 6 5 5 5 6 6 7 9 12 16 22 31 40 50 60 69 76 78 77 73 68 65 69 78 83 85
15 15 15 15 16 16 16 17 18 19 20 21 23 23 23 23 22 21 20 20 19 19 20 20 20 19 19 19 18 17 17 16 15 15 14 14 13 13 12 12 11 11 10 10 10 9 9 9 9 9 9 9 9 9 8 8 8 8 7 7 7 6 6 6 5 6 6 7 9 12 17 25 34 45 56 66 75 80 80 76 71 67 64 72 79 84
15 15 15 15 15 15 15 16 16 17 18 19 20 22 23 23 23 23 23 22 21 20 20 20 21 21 21 20 20 19 18 18 17 16 16 15 15 14 13 13 12 12 11 11 10 10 10 10 9 9 9 9 9 9 9 9 9 9 9 8 8 7 7 6 6 6 6 6 7 9 11 18 26 36 48 59 69 77 81 79 76 71 65 66 73 80
15 15 15 15 15 16 15 16 16 16 16 17 18 19 20 22 23 24 25 24 23 22 21 21 21 21 21 21 21 21 20 19 19 18 18 17 17 16 15 14 14 13 12 12 11 11 11 10 10 10 10 10 10 10 10 10 10 10 10 10 9 9 8 7 7 6 6 6 6 7 8 11 17 25 36 48 59 68 75 78 78 76 70 66 68 73
14 14 15 15 15 15 15 16 16 16 16 16 16 17 18 19 21 22 24 25 25 25 24 23 22 22 22 22 21 21 21 21 21 20 20 19 19 18 17 16 15 14 14 13 12 12 11 11 11 11 11 11 11 11 11 11 11 11 11 11 10 10 10 9 8 7 7 6 6 6 6 8 10 16 23 34 44 54 63 70 75 77 76 70 67 68
13 14 14 14 15 15 15 15 16 16 16 16 16 16 17 18 18 20 21 23 24 26 26 26 26 25 23 23 22 21 21 21 21 21 22 21 21 20 19 18 17 16 15 15 14 13 12 12 12 12 11 11 11 11 11 12 12 12 12 12 12 11 11 10 10 9 8 7 7 6 6 6 7 9 14 21 29 37 45 54 62 70 76 75 72 69
13 13 13 14 14 14 14 15 15 15 16 16 16 16 17 17 17 18 19 20 22 24 26 27 28 28 27 26 24 23 22 21 21 21 22 22 23 22 21 20 19 18 17 17 16 15 14 13 13 12 12 12 12 12 12 12 12 12 13 13 13 13 12 12 11 10 10 9 8 7 7 6 6 7 8 12 17 22 28 35 43 52 64 72 75 74
13 13 13 13 13 13 14 14 14 15 15 16 16 16 17 17 17 17 17 18 19 21 23 25 27 29 30 29 28 26 24 23 22 21 21 22 23 23 23 22 21 20 19 18 18 16 15 15 14 14 13 13 13 13 13 13 13 13 13 13 13 14 14 13 13 12 11 10 10 9 8 7 6 6 6 7 10 12 16 19 24 32 43 58 69 76
13 13 12 12 12 12 13 13 14 14 14 15 15 16 16 17 17 17 17 17 18 19 20 22 24 26 29 30 31 30 29 26 24 23 22 22 23 23 24 24 23 22 21 21 19 18 17 16 16 15 15 14 14 14 13 13 13 13 13 14 14 14 14 14 14 14 13 12 11 10 10 9 8 7 6 6 7 8 9 11 13 17 24 39 54 67
13 13 12 12 12 12 12 12 13 13 14 14 15 15 16 16 17 17 17 18 18 18 18 19 21 22 25 28 30 32 32 30 28 26 25 24 23 24 24 24 24 23 23 22 21 20 19 18 18 17 16 16 15 15 14 14 14 14 14 14 14 14 14 15 15 15 14 14 13 12 11 10 9 9 8 7 7 7 7 8 8 10 12 22 37 52
13 13 12 12 12 12 12 12 13 13 13 14 14 14 15 15 16 17 17 18 18 18 18 19 19 20 21 24 27 29 32 32 32 30 28 27 26 25 25 25 24 24 24 23 23 22 21 20 19 19 18 18 17 16 15 15 14 14 14 14 14 14 14 15 15 15 15 15 14 14 13 12 11 10 9 8 8 7 7 7 7 8 8 12 22 36
13 13 13 13 12 12 12 13 13 13 13 13 13 14 14 15 15 16 16 17 18 18 18 19 19 19 20 21 23 26 28 31 32 33 32 30 29 28 27 26 26 25 24 24 24 23 22 21 21 20 20 19 18 18 17 16 16 15 14 14 14 14 14 14 15 15 15 15 15 15 14 14 13 12 11 10 9 9 8 8 8 8 8 8 13 22
13 13 13 13 13 13 13 13 13 13 13 13 13 13 14 14 14 15 16 16 17 17 18 18 19 19 20 21 22 23 25 28 30 31 33 33 32 32 30 29 28 26 26 25 25 24 23 23 22 22 21 21 20 19 18 18 17 16 15 15 14 14 14 14 14 15 15 15 16 15 15 15 14 13 12 12 11 10 10 9 9 9 8 8 9 13
13 13 13 13 13 13 13 13 13 14 14 14 14 14 14 14 14 15 15 16 16 17 17 18 18 19 20 21 22 23 24 25 26 28 30 32 33 33 33 32 31 29 28 27 26 25 25 24 24 23 23 22 22 21 20 19 18 17 17 16 15 14 14 14 14 14 14 15 15 16 15 15 15 14 14 13 12 12 11 10 10 10 10 9 8 9
14 14 14 14 14 14 14 14 14 14 14 14 14 14 14 14 14 14 15 15 16 16 16 17 17 18 19 20 21 22 23 24 25 26 27 28 30 32 33 34 33 32 31 29 28 27 26 26 25 25 25 24 23 22 22 21 20 19 18 17 16 15 14 14 14 14 14 14 15 15 15 15 15 15 14 14 14 13 12 12 11 11 11 10 10 9
15 15 15 15 14 14 14 14 15 15 15 15 15 15 15 15 15 15 15 15 15 15 15 16 17 17 18 19 20 21 22 23 24 25 25 26 27 28 31 33 34 34 33 32 31 30 28 27 27 26 26 26 25 24 23 22 21 20 19 18 17 16 16 15 14 14 14 14 14 15 15 15 15 15 14 14 14 14 13 13 12 12 11 11 11 10
16 16 16 16 16 15 15 15 15 15 15 15 15 15 15 15 15 16 16 16 16 16 16 16 17 17 17 18 19 20 21 22 23 24 24 25 25 26 27 29 32 33 34 34 33 32 31 30 29 28 27 27 26 26 25 24 23 22 21 20 19 18 17 16 15 15 14 14 14 14 15 15 15 15 14 14 14 14 14 13 13 13 12 12 12 12
18 18 17 17 17 17 17 17 17 17 17 17 16 16 16 16 16 16 16 16 16 16 17 17 17 17 17 18 18 19 20 22 23 23 24 24 24 25 25 26 28 30 32 33 33 34 33 32 31 30 29 29 28 27 27 26 25 24 23 22 20 19 18 17 17 16 15 15 14 14 14 15 15 15 15 14 14 14 14 13 13 13 13 13 13 13
19 19 19 19 18 18 18 18 18 18 18 18 18 18 17 17 17 17 17 17 17 17 18 18 18 18 18 18 18 18 20 21 22 23 23 24 24 24 24 25 26 27 28 30 31 32 34 34 34 33 32 31 30 29 29 28 27 26 25 24 22 21 20 19 18 17 17 16 15 15 15 15 15 15 15 14 14 13 13 13 13 13 13 13 13 13
20 20 20 20 20 20 20 20 20 20 20 20 19 19 19 18 18 18 18 18 18 18 18 18 19 19 19 18 19 19 20 21 22 23 23 24 24 23 23 24 25 26 26 27 28 29 31 33 34 35 34 33 32 32 31 30 29 28 27 26 25 23 22 21 20 19 18 17 16 16 15 15 15 15 15 15 14 14 13 13 13 13 13 13 13 13
22 22 22 22 22 22 22 22 22 22 22 22 21 21 21 20 20 19 19 19 19 19 19 19 19 19 19 19 20 20 20 21 22 23 24 24 24 23 23 24 25 25 26 26 27 27 27 28 31 33 35 35 35 34 34 33 32 31 29 28 27 26 25 23 22 21 20 19 18 17 16 16 16 16 15 15 15 14 13 13 13 13 12 13 13 13
24 24 24 24 24 25 25 25 25 24 24 24 24 23 23 22 22 21 21 21 20 20 20 20 19 19 19 20 20 20 20 21 22 23 24 25 24 23 23 24 25 25 25 26 26 26 25 25 26 29 32 34 35 35 35 35 35 34 33 31 30 29 27 26 24 23 22 20 19 18 18 17 17 16 16 16 15 15 14 14 13 13 12 13 13 13
26 26 26 26 27 27 27 27 27 27 27 27 27 26 26 25 24 24 23 23 23 22 22 21 21 20 20 20 20 20 21 22 23 23 24 25 24 24 24 24 25 25 25 26 26 26 26 24 24 25 27 30 32 34 35 36 36 36 36 35 34 32 31 29 27 26 24 23 21 20 20 19 18 18 17 17 16 15 15 14 14 13 13 13 13 13
28 28 28 29 29 30 30 31 31 31 31 31 30 30 29 28 27 27 26 26 26 25 25 24 23 23 22 22 21 21 22 23 23 24 25 25 25 24 24 24 25 25 25 25 26 26 26 25 24 24 24 25 27 30 32 34 35 36 37 37 37 36 35 33 31 29 27 25 24 23 22 21 20 19 18 18 17 16 16 15 14 14 13 13 13 13
31 31 31 32 33 33 34 34 35 35 35 35 34 33 33 32 31 31 31 30 29 29 28 27 27 26 25 24 24 23 23 24 25 25 26 26 26 25 25 25 25 25 25 25 25 25 25 25 25 24 24 24 25 26 28 30 32 34 35 36 37 38 38 37 36 34 32 29 27 26 24 23 22 21 20 19 19 18 17 16 15 14 14 13 13 13
34 34 35 36 36 37 37 38 38 39 39 38 38 37 37 36 35 35 35 34 34 33 32 31 30 29 28 28 27 26 26 26 26 27 28 28 28 27 27 26 25 25 26 25 25 24 24 24 24 24 24 24 24 25 26 27 29 30 31 33 35 36 38 38 39 38 37 35 32 30 27 26 24 23 22 21 20 20 19 18 17 16 15 14 14 13
37 37 38 39 40 40 40 41 41 42 42 42 41 41 41 40 40 39 39 38 38 37 36 35 34 33 32 31 30 30 29 28 29 29 30 30 30 29 29 28 27 27 27 26 26 25 24 24 23 23 23 24 24 24 25 25 26 28 29 30 31 33 34 36 38 39 39 39 37 35 33 30 28 26 24 23 22 22 21 20 19 17 16 15 15 14
40 40 40 41 42 43 43 43 43 44 44 44 44 43 43 43 43 42 42 41 41 40 39 38 37 36 35 34 33 33 32 32 32 32 32 32 32 31 31 30 29 28 28 28 27 26 25 24 23 23 23 23 23 24 24 24 25 26 27 27 28 29 31 32 34 36 38 39 39 38 37 35 33 31 28 26 25 24 24 23 21 20 18 17 16 15
43 43 43 44 44 45 45 45 45 45 45 45 45 45 45 45 45 44 44 43 42 41 41 40 39 38 37 36 36 35 35 35 34 34 34 34 33 32 32 31 30 30 29 29 29 28 27 26 24 23 23 22 22 23 23 24 25 25 25 26 26 27 29 30 31 32 34 36 37 38 38 38 37 35 33 31 29 28 27 26 24 23 21 19 18 17
46 46 46 46 47 47 46 46 46 46 46 46 46 46 46 46 46 45 44 43 43 42 41 40 39 38 37 37 36 36 36 35 35 35 34 34 33 32 31 31 30 30 29 29 29 28 28 27 26 25 24 23 22 22 22 23 24 24 25 25 26 26 27 28 29 30 31 32 34 35 36 37 37 37 37 35 34 32 31 29 28 26 24 22 21 19
49 49 49 49 48 48 48 47 47 47 47 47 47 47 47 47 46 45 44 43 42 41 40 39 38 37 36 36 35 35 34 34 33 33 32 31 31 30 29 29 28 28 28 27 27 27 27 27 26 26 25 24 24 23 22 23 23 23 24 24 25 25 26 26 27 28 29 30 31 32 33 34 34 35 36 36 36 35 34 33 32 30 28 26 24 22
52 52 51 51 50 50 49 49 49 49 49 49 48 48 48 47 46 45 43 42 41 40 39 37 36 35 34 33 32 32 31 30 29 29 28 28 27 26 26 26 25 25 25 25 25 25 25 25 25 25 25 24 24 23 23 23 23 23 23 24 24 24 24 25 26 26 27 28 29 29 30 31 32 32 33 34 35 35 35 35 35 34 33 31 29 26
55 54 53 53 52 52 51 51 51 50 50 50 49 48 47 46 45 43 42 41 39 38 36 35 33 32 31 30 29 29 28 27 26 26 25 24 24 23 22 22 22 22 21 21 21 21 22 22 22 22 22 22 22 22 21 22 22 22 22 23 23 23 23 24 24 25 25 26 27 27 28 29 29 30 30 31 32 33 33 34 35 36 36 35 34 31
57 56 56 55 54 54 53 53 52 51 51 50 49 47 46 44 43 41 39 37 36 34 33 31 30 29 28 27 26 26 25 24 23 23 22 21 21 20 20 19 19 19 18 18 18 18 18 18 19 19 19 19 19 19 20 20 20 21 21 21 21 21 21 22 22 22 23 23 24 25 26 26 27 27 28 29 29 30 31 31 33 34 35 36 36 35
59 58 57 57 56 55 54 53 52 51 50 48 46 44 43 41 39 37 35 33 32 30 29 28 26 25 25 24 23 22 21 21 21 20 20 19 19 18 18 17 17 17 17 16 16 16 16 16 16 16 16 16 16 17 17 17 18 18 18 19 19 19 19 20 20 20 20 21 22 22 23 24 24 25 26 26 27 28 28 29 30 31 32 33 34 35
60 59 58 57 56 55 53 51 50 48 46 44 42 40 38 36 34 33 31 29 28 27 26 25 23 22 22 21 20 20 19 18 18 18 18 18 17 17 17 16 16 15 15 15 15 14 14 14 14 14 14 14 14 14 14 15 15 15 15 16 16 16 17 17 17 18 18 18 19 19 20 20 21 22 23 24 25 26 26 27 27 28 29 30 31 32
60 59 57 55 53 51 49 47 45 43 40 38 36 35 33 32 30 29 27 26 25 24 23 22 21 20 20 19 19 18 18 17 17 16 16 16 16 16 16 15 15 15 14 14 14 13 13 13 13 12 12 12 12 12 12 12 12 12 13 13 13 13 14 14 15 15 16 16 16 17 17 18 18 19 20 21 22 23 23 24 25 26 26 27 27 28
56 54 52 50 47 45 43 41 39 37 35 33 32 31 30 29 28 26 26 25 24 23 22 21 20 20 19 19 18 18 17 17 16 16 15 15 15 15 15 15 15 14 14 13 13 13 12 12 11 11 11 10 10 10 11 11 11 11 11 11 11 11 11 12 12 13 13 13 14 14 15 15 16 16 17 18 19 19 20 21 22 23 24 24 25 26
50 47 45 43 41 39 37 35 34 32 31 30 29 28 28 27 27 26 26 25 24 24 23 22 22 21 21 20 19 18 18 18 17 16 16 16 15 15 15 14 14 14 13 13 12 11 11 10 10 10 9 9 9 9 9 9 9 9 9 9 9 9 9 10 10 10 10 10 11 11 12 12 13 13 14 15 15 16 17 18 19 19 20 21 22 23
43 42 40 38 36 35 33 33 32 31 30 29 29 29 28 28 28 28 28 27 27 26 26 25 24 24 23 22 21 21 20 19 18 18 17 16 16 15 14 13 13 12 11 11 10 10 9 9 8 8 8 7 7 7 7 7 7 7 7 7 7 7 7 7 8 8 8 8 9 9 9 10 10 10 11 11 12 13 14 15 16 16 17 18 19 19
40 38 37 36 35 34 33 33 33 32 32 32 32 31 31 31 31 31 31 31 30 30 29 28 27 26 25 24 23 23 22 20 19 18 17 16 15 14 12 11 11 10 9 9 8 8 7 7 7 7 6 6 6 6 6 6 6 6 5 5 5 5 5 6 6 6 6 6 6 7 7 7 8 8 8 9 9 10 11 12 12 13 14 15 15 16
Wind_Speed
41 41 41 41 41 41 41 41 40 40 40 40 40 40 40 40 40 40 39 39 39 39 38 38 38 37 37 37 36 36 36 36 36 36 36 35 35 35 35 35 35 34 34 33 32 32 31 31 30 30 29 29 29 28 28 28 29 29 29 29 30 30 30 31 31 32 33 33 34 35 35 35 35 35 35 35 37 38 38 37 36 36 37 39 41 43
41 41 41 41 41 42 42 41 41 41 41 41 41 41 41 41 41 41 41 40 40 40 39 39 39 39 38 38 38 37 37 37 37 37 37 36 36 36 36 36 36 35 35 34 33 33 32 32 31 30 30 29 29 29 29 29 29 29 29 30 30 30 30 31 31 32 32 33 34 35 35 35 35 35 35 35 35 36 36 36 35 34 35 37 39 40
42 42 42 42 42 42 42 42 42 42 42 42 42 42 42 42 42 42 42 42 42 41 41 40 40 40 39 39 39 39 38 38 38 38 38 38 37 37 37 37 37 36 36 35 35 34 33 33 32 31 31 30 30 29 29 29 29 29 30 30 30 30 31 31 31 32 32 33 33 34 35 36 36 36 35 35 35 35 35 34 34 33 33 35 37 39
43 43 43 43 43 43 43 43 43 43 43 43 43 43 43 43 43 43 43 43 43 43 42 42 42 41 41 40 40 40 39 39 39 39 39 39 38 38 38 38 38 37 37 36 36 35 34 34 33 32 31 31 30 30 30 30 30 30 30 30 30 31 31 31 32 32 32 33 33 34 35 35 36 36 35 35 34 34 33 33 33 32 32 33 35 37
45 45 45 45 44 44 44 44 44 44 44 44 44 44 44 44 44 45 45 45 44 44 44 44 43 43 42 42 41 41 41 40 40 40 40 40 40 40 39 39 39 39 38 38 37 36 36 35 34 33 33 32 31 31 30 30 30 30 30 30 31 31 31 31 32 32 32 32 33 33 34 35 35 35 35 35 34 33 32 32 32 31 31 31 31 32
46 46 46 46 46 46 46 46 45 45 45 45 45 45 45 45 45 46 46 46 46 46 45 45 45 44 44 43 43 42 42 42 41 41 41 41 41 41 41 40 40 40 39 39 38 38 37 36 36 35 34 33 32 32 31 31 31 31 31 31 31 31 31 32 32 32 32 32 32 32 33 34 35 35 35 34 33 33 32 31 31 31 30 29 29 29
47 48 48 48 48 48 48 48 47 47 46 46 46 46 46 46 46 46 47 47 47 47 47 47 47 46 46 45 44 44 43 43 42 42 42 42 42 42 42 42 41 41 41 40 40 39 39 38 37 36 35 35 34 33 32 32 31 31 31 31 31 31 32 32 32 32 31 31 31 32 32 33 33 34 33 33 32 32 32 31 31 31 31 30 30 31
48 49 49 49 50 50 50 50 50 49 49 48 48 47 47 47 47 47 48 48 48 48 48 48 48 48 48 47 46 46 45 44 44 44 43 43 43 43 43 43 43 43 42 42 41 41 40 40 39 38 37 36 35 35 34 33 33 32 32 32 32 32 32 32 32 32 32 31 31 31 31 32 33 33 32 32 31 31 31 31 31 32 33 33 34 34
50 50 50 50 51 51 51 52 52 52 51 51 50 49 49 48 48 48 49 49 49 49 49 49 49 49 49 49 48 48 47 46 46 45 45 45 45 45 45 45 45 44 44 44 43 43 42 41 41 40 39 38 37 36 36 35 34 33 33 32 32 32 32 32 33 32 32 32 31 31 31 31 32 32 32 31 31 31 31 31 32 33 35 36 37 37
52 52 52 52 52 52 53 53 53 53 53 53 53 52 51 50 50 49 49 50 50 50 50 50 50 51 51 50 50 50 49 48 47 47 46 46 46 46 46 46 46 46 46 45 45 44 44 43 43 42 41 40 39 38 37 36 36 35 34 33 33 33 33 33 33 33 33 32 32 32 31 32 32 32 32 32 31 31 32 32 32 34 37 39 39 39
53 54 54 54 54 54 54 54 54 54 55 55 55 55 54 53 53 52 51 51 51 51 51 52 52 52 52 52 52 51 51 50 49 49 48 48 48 48 48 48 48 48 47 47 47 46 46 45 45 44 43 42 41 40 40 39 38 37 36 35 34 34 34 34 34 34 34 33 33 33 32 33 33 33 33 33 33 33 33 33 33 34 38 41 42 41
55 55 55 56 56 56 56 56 56 56 56 56 56 56 56 56 55 55 54 53 52 52 52 52 53 53 53 53 53 53 52 52 51 51 50 50 50 49 49 49 49 49 49 49 48 48 48 47 47 46 45 45 44 43 42 41 40 39 38 37 36 36 35 35 35 35 35 34 34 34 34 34 34 34 35 35 35 36 36 35 34 35 37 42 44 44
55 56 57 57 57 58 58 58 58 58 58 58 58 58 58 58 57 57 57 56 55 54 54 53 53 54 54 54 54 54 54 53 53 52 52 52 51 51 51 51 51 51 51 50 50 50 49 49 48 48 47 47 46 45 44 43 42 41 40 39 38 37 37 36 36 36 36 36 35 35 35 35 35 36 37 37 38 38 38 37 36 36 37 41 45 47
56 56 57 58 58 59 59 59 59 60 60 59 59 59 59 59 59 59 59 58 58 57 56 55 55 55 55 55 55 55 55 55 54 54 54 54 54 53 53 53 53 53 52 52 52 51 51 51 50 50 50 49 48 48 47 46 45 44 42 41 40 39 39 38 38 38 37 37 37 36 36 36 37 37 38 39 40 40 40 40 39 38 38 40 45 48
56 57 57 58 59 59 60 60 60 61 61 61 61 61 61 61 61 61 60 60 60 59 59 58 57 57 57 57 57 56 56 56 55 55 55 55 55 55 55 55 55 55 54 54 54 53 53 52 52 52 52 51 51 50 49 48 47 46 45 44 43 42 41 40 40 39 39 39 38 38 38 38 38 38 39 40 41 42 42 42 41 40 39 40 43 47
57 57 58 58 59 60 60 61 61 62 62 62 62 62 62 62 62 62 62 62 62 61 61 60 60 59 59 59 59 59 58 57 57 56 56 56 57 57 57 57 57 56 56 56 56 55 55 54 54 54 53 53 53 52 51 51 50 49 48 47 46 45 43 43 42 41 41 40 40 40 39 39 39 39 40 41 42 43 43 44 43 42 41 41 43 46
58 58 59 59 60 60 61 61 62 63 63 63 63 63 64 64 64 64 64 63 63 63 62 62 62 61 61 61 61 61 61 60 59 58 57 57 58 58 58 58 58 58 58 58 57 57 57 56 56 56 55 55 55 54 54 53 52 52 51 50 49 47 46 45 44 44 43 42 42 42 41 41 41 41 41 42 42 43 44 44 44 44 43 43 43 45
59 60 60 61 61 61 62 62 63 63 64 64 64 64 65 65 65 65 65 65 65 64 64 64 63 63 62 62 62 63 63 62 61 60 59 59 59 59 59 59 59 59 59 59 59 59 58 58 58 58 57 57 57 56 56 55 55 54 53 53 52 51 49 48 47 46 45 45 44 44 43 43 43 43 43 43 43 44 44 44 44 44 44 44 44 45
61 61 62 62 62 63 63 64 64 64 65 65 65 65 65 66 66 66 66 66 66 66 66 65 65 64 64 63 63 64 64 64 63 63 62 61 60 61 61 61 61 60 60 60 60 60 60 60 59 59 59 59 59 58 58 57 57 56 56 55 54 54 52 51 50 49 48 47 47 46 45 45 45 45 45 45 45 45 45 45 45 44 44 44 45 46
63 63 64 64 64 64 65 65 66 66 66 66 66 66 66 67 67 67 67 67 67 67 67 67 66 66 65 65 65 65 65 65 65 64 64 63 62 62 62 62 62 62 62 62 62 62 61 61 61 61 61 61 61 61 60 60 59 59 58 58 57 56 55 54 53 52 51 50 49 48 48 47 47 47 47 47 47 47 47 46 46 45 44 44 45 46
65 65 65 65 66 66 66 67 67 67 68 68 68 68 68 68 68 68 68 68 68 68 68 68 68 67 67 66 66 67 67 66 66 66 65 64 64 64 64 64 64 63 63 63 63 63 63 62 62 62 62 63 63 62 62 62 61 61 60 60 59 59 58 57 56 55 54 53 52 51 50 50 49 49 49 49 49 49 49 48 48 46 45 44 45 45
67 67 67 67 67 68 68 68 68 69 69 69 70 70 69 69 69 69 69 69 69 69 69 69 69 69 68 68 68 68 68 68 68 67 67 66 65 65 66 66 65 65 65 65 65 64 64 64 64 64 64 64 64 64 64 63 63 63 63 62 62 61 61 60 59 58 57 56 55 54 53 52 52 51 51 51 51 51 51 51 50 49 47 46 45 45
69 69 69 69 69 70 70 70 70 70 71 71 71 71 71 71 71 71 70 70 70 70 70 70 70 70 70 70 69 69 69 69 69 69 68 68 67 67 67 67 67 67 67 66 66 66 66 66 65 65 65 66 66 66 65 65 65 65 64 64 64 63 63 62 62 61 60 59 58 57 56 55 54 54 53 53 53 52 52 52 52 51 50 48 46 46
71 71 71 71 72 72 72 72 72 72 73 73 73 73 73 73 73 73 72 72 72 72 71 71 71 70 70 70 70 70 71 71 70 70 70 70 69 69 69 69 68 68 68 68 68 67 67 67 67 67 67 67 67 67 67 67 67 67 66 66 66 65 65 65 64 64 63 62 61 60 59 57 57 56 56 55 55 55 54 54 54 53 53 51 49 48
73 73 73 74 74 74 74 74 74 75 75 75 75 75 75 75 75 75 75 75 74 74 73 72 72 71 71 71 71 71 72 72 72 71 71 71 71 70 70 70 70 70 70 70 69 69 69 69 68 68 68 69 69 69 69 69 68 68 68 68 68 67 67 67 66 66 66 65 64 63 62 61 59 59 58 58 57 57 56 56 56 55 55 53 52 50
75 75 75 75 76 76 76 76 77 77 77 77 77 77 77 76 76 76 76 76 76 75 74 74 73 73 73 72 72 72 73 73 73 73 73 72 72 72 72 72 72 72 72 72 71 71 70 70 70 70 70 70 70 70 70 70 70 70 70 70 69 69 69 69 68 68 68 68 67 66 65 64 63 61 61 60 60 59 59 58 58 57 56 55 54 53
77 77 77 77 77 77 78 78 78 79 79 79 79 79 79 78 77 77 77 77 77 76 76 76 76 75 74 74 74 74 74 74 74 74 74 74 73 73 73 73 73 74 74 74 73 73 73 72 72 72 71 72 72 72 72 72 72 72 72 71 71 71 71 71 70 70 70 70 70 70 69 67 66 65 64 63 62 62 61 61 60 59 59 58 56 55
78 78 78 78 78 79 79 79 79 80 80 81 81 81 81 80 79 78 78 78 78 77 77 78 77 77 76 76 75 75 75 75 76 76 76 75 75 75 75 74 74 75 75 75 75 75 75 74 74 74 73 73 73 73 73 73 73 73 73 73 73 73 73 73 72 72 72 72 72 72 71 71 70 68 67 66 65 64 64 63 62 62 61 60 59 58
79 79 79 79 79 79 80 80 80 81 81 82 82 82 82 81 80 80 80 80 79 79 79 79 79 78 78 78 77 77 76 77 77 78 77 77 76 77 76 76 76 76 77 77 76 76 76 76 76 76 76 75 75 75 75 75 75 75 75 75 75 75 75 75 75 75 75 74 74 74 74 74 73 72 71 69 68 67 66 66 65 64 63 63 62 60
80 80 80 80 80 80 80 80 81 81 82 82 82 83 83 83 82 82 82 81 80 80 80 80 80 79 79 79 79 78 78 78 79 79 79 78 78 78 78 77 77 78 78 78 78 78 77 77 78 78 78 78 78 77 77 77 76 76 76 77 77 77 77 77 77 77 77 77 76 76 76 76 76 75 74 73 72 70 69 68 68 67 66 65 64 63
81 80 80 80 80 80 80 81 81 81 82 82 82 83 83 83 83 83 83 82 82 81 81 81 81 81 80 80 80 79 79 79 80 80 80 79 80 80 80 79 79 80 80 80 80 80 79 79 78 79 80 80 80 80 79 79 79 79 78 78 78 78 78 78 79 79 79 79 79 78 79 78 79 78 77 76 75 74 73 72 71 70 69 68 67 66
80 80 80 80 80 80 80 80 81 81 81 82 82 82 83 83 83 83 84 83 83 82 82 82 82 82 82 81 81 81 81 80 81 81 81 81 81 82 81 81 81 81 82 82 82 82 82 81 80 80 80 81 82 82 82 82 81 81 81 80 80 80 80 80 80 81 81 81 81 81 81 81 81 81 80 80 79 77 76 75 74 73 72 71 70 69
80 79 79 78 78 78 78 79 79 80 80 81 81 81 82 82 82 83 83 83 83 83 83 82 82 82 82 82 82 82 82 82 82 83 82 82 82 83 82 82 82 83 83 83 83 84 84 83 82 82 82 82 83 83 83 84 84 84 83 83 82 82 82 82 82 82 83 83 83 83 83 83 83 83 83 82 82 81 80 79 78 77 75 74 73 72
79 78 78 77 77 77 77 77 78 78 78 79 79 80 80 81 81 81 82 82 82 83 83 83 82 82 82 82 82 82 82 83 83 83 83 83 84 84 84 83 83 84 84 84 85 85 85 85 85 84 84 84 84 84 85 85 86 86 86 85 85 85 84 84 84 84 84 84 85 85 85 85 85 85 85 85 84 84 83 82 81 80 79 78 77 75
78 78 77 76 76 76 76 76 76 77 77 77 78 78 78 79 79 79 80 80 81 81 82 82 82 82 82 82 82 82 82 83 83 84 84 84 84 85 85 84 85 85 85 86 86 86 86 87 87 86 86 86 86 86 86 87 87 88 88 88 88 87 87 86 86 86 86 86 86 87 87 87 87 87 87 87 87 86 86 85 84 83 82 81 80 79
77 77 76 76 76 75 75 76 76 76 76 76 76 77 77 77 77 78 78 79 79 80 80 81 81 82 82 82 82 82 82 83 83 83 84 84 85 85 85 85 86 86 86 87 87 88 88 88 88 88 88 88 88 88 88 88 89 89 90 90 90 90 90 89 89 89 88 88 88 89 89 89 89 89 89 89 89 89 88 88 87 86 86 85 84 82
77 76 76 76 76 76 76 76 76 76 76 76 76 76 76 76 77 77 77 78 78 79 79 80 80 81 81 82 82 82 83 83 83 83 84 85 85 85 86 86 87 87 87 88 89 89 89 89 89 89 89 89 89 89 89 90 90 91 91 92 92 92 92 92 92 92 91 91 91 91 91 91 91 91 91 91 91 91 91 90 90 89 89 88 87 86
77 77 76 76 76 76 76 76 76 76 76 76 76 76 76 76 77 77 77 78 78 78 79 79 80 80 80 81 81 82 82 82 83 83 84 85 85 86 86 87 88 88 88 89 90 90 91 91 91 91 91 90 90 91 91 91 91 92 93 93 93 94 94 95 95 95 94 94 94 93 93 93 93 93 93 93 92 92 92 92 92 92 91 91 90 89
77 77 77 77 77 77 77 77 77 77 77 77 77 77 77 77 78 78 78 78 79 79 79 80 80 80 80 81 81 81 82 82 83 83 84 85 86 86 87 87 88 89 89 90 91 91 92 92 92 92 92 92 92 92 92 92 92 93 94 94 94 95 95 96 97 97 97 97 97 96 96 96 95 95 95 95 94 94 94 94 94 94 94 93 93 92
78 78 78 78 78 78 78 78 78 78 78 78 78 78 78 79 79 79 79 80 80 80 80 81 81 81 81 82 82 82 82 83 83 84 85 85 86 87 88 88 89 90 90 91 92 92 93 93 94 94 94 94 94 94 94 94 94 94 95 95 95 95 96 97 98 98 99 100 100 99 99 99 98 98 97 97 97 96 96 96 95 95 95 95 95 94
79 79 79 79 79 79 79 79 79 79 79 79 79 80 80 80 80 80 81 81 81 82 82 82 83 83 83 83 83 83 84 84 85 85 86 87 88 88 89 90 90 91 92 92 93 94 94 94 95 95 96 96 96 96 96 96 96 96 96 96 96 97 97 98 98 99 100 101 101 102 102 102 101 101 100 100 99 99 98 98 97 97 97 97 97 96
81 81 81 80 80 80 80 80 80 80 80 80 80 81 81 81 82 82 82 83 83 83 84 84 84 85 85 85 85 85 85 86 87 87 88 89 89 90 91 92 92 93 94 94 95 95 96 96 97 97 97 98 98 98 98 98 98 98 98 98 99 99 99 98 99 100 100 101 102 102 103 103 103 104 103 103 102 102 101 100 99 99 98 98 98 98
82 82 82 82 82 82 82 82 82 81 82 81 81 82 82 83 83 84 84 84 85 85 86 86 86 87 87 87 87 87 87 88 89 89 90 91 92 92 93 94 95 96 96 97 97 98 99 99 99 99 100 100 100 100 100 100 100 100 100 101 101 101 100 100 101 101 101 101 102 103 103 104 105 105 105 105 105 105 104 103 102 102 101 100 100 100
83 83 83 83 83 83 83 82 82 82 82 82 83 83 84 84 85 85 86 86 87 87 88 88 89 89 89 89 90 90 90 90 91 91 92 93 94 95 96 96 97 98 99 99 100 101 101 101 101 102 102 103 102 102 102 102 102 102 103 103 104 103 103 104 104 103 103 103 103 104 104 105 105 106 106 106 106 107 107 106 106 105 104 103 102 101
84 84 84 84 83 83 83 83 83 83 83 84 84 84 85 86 86 87 88 88 89 89 90 91 91 91 92 92 92 93 92 93 93 94 94 95 96 97 98 99 100 101 102 102 103 104 104 104 105 105 106 105 105 105 105 105 105 105 105 106 106 106 107 107 107 106 106 106 106 106 106 106 106 106 106 106 107 107 108 108 109 108 108 106 105 104
84 84 84 84 84 84 84 84 84 85 85 85 86 86 87 88 88 89 90 90 91 92 92 93 93 94 94 95 95 95 95 95 96 96 97 97 98 99 100 101 102 103 104 105 106 107 107 107 108 108 108 108 108 108 109 109 109 109 109 109 109 109 109 109 109 109 109 109 109 109 109 109 108 107 107 107 108 108 108 109 110 110 110 110 109 107
84 84 84 84 84 85 85 85 86 86 86 87 88 88 89 90 90 91 92 93 93 94 94 95 96 96 96 97 98 98 98 98 99 99 99 100 100 101 102 103 104 105 106 107 108 109 109 110 111 111 111 111 111 112 112 112 112 112 113 113 113 113 112 112 112 112 112 112 112 112 112 112 111 110 110 110 110 109 109 110 110 111 112 112 111 111
85 85 85 86 86 86 86 87 88 88 88 89 90 90 91 92 92 93 94 94 95 95 96 97 97 98 98 99 99 100 100 100 101 101 101 102 102 103 104 105 106 107 108 108 109 110 111 112 112 112 113 113 113 114 115 115 115 116 116 117 117 117 116 116 116 116 116 115 115 116 115 115 115 115 115 114 113 112 111 111 111 111 112 113 113 113
86 86 87 87 88 88 88 89 90 90 90 91 92 92 93 93 94 94 95 95 96 97 97 98 98 99 99 100 100 101 101 102 102 103 103 103 104 104 105 106 107 107 108 108 109 109 110 110 111 112 112 111 111 112 113 115 115 116 117 118 118 119 119 119 120 120 120 119 120 120 119 119 119 119 119 118 117 116 115 114 113 113 113 113 114 114
88 88 89 89 90 90 90 91 91 92 92 93 93 93 94 94 94 95 95 96 96 97 98 98 99 99 100 100 101 101 102 102 103 103 104 104 104 105 105 105 105 105 105 105 105 105 105 105 105 106 107 106 105 104 106 108 110 111 112 113 114 116 117 117 119 120 121 121 122 122 122 122 122 122 122 122 121 121 120 118 117 116 115 115 115 115
90 90 91 91 91 92 92 92 93 93 93 94 94 94 94 94 95 95 96 96 97 97 98 99 99 99 100 100 101 101 102 102 102 102 102 103 102 102 101 101 101 100 99 99 99 98 97 96 96 96 97 97 96 94 94 96 99 100 101 103 105 106 107 108 111 113 115 116 118 119 121 121 122 123 124 124 124 125 124 123 122 120 119 119 118 118
Wind_Direction
281 281 281 280 280 279 278 277 277 275 274 274 273 272 271 271 270 270 269 269 269 269 270 270 270 270 271 271 271 272 272 272 273 273 273 274 274 274 275 275 275 275 276 276 276 275 275 275 275 275 275 275 276 276 277 277 278 278 279 280 280 281 281 280 279 277 274 272 270 268 267 267 267 266 265 263 261 260 258 256 252 248 245 243 241 241
281 281 280 280 279 279 278 278 277 276 275 274 273 273 272 271 271 270 270 270 269 269 269 269 270 270 270 270 271 271 271 272 272 272 273 273 273 273 274 274 274 274 275 275 275 275 274 274 274 274 274 274 274 275 275 275 276 276 277 278 279 279 280 280 279 278 276 273 270 268 267 266 266 266 266 265 263 261 259 257 253 249 246 243 241 240
280 280 280 280 279 278 278 278 277 276 275 274 274 273 272 272 271 271 270 270 270 269 269 269 269 269 269 270 270 270 271 271 271 272 272 272 272 273 273 273 273 273 274 274 274 274 273 273 273 273 272 272 273 273 273 274 274 275 276 276 277 278 279 279 279 279 277 274 272 269 267 266 265 266 266 266 265 263 260 258 255 251 248 245 242 240
280 280 279 279 279 278 278 277 277 276 275 275 274 273 272 272 271 271 271 270 270 270 269 269 269 269 269 269 269 269 270 270 270 271 271 271 271 272 272 272 272 272 273 273 273 272 272 272 272 272 271 271 271 271 272 272 273 273 274 275 276 277 278 279 279 279 278 276 273 270 268 266 265 265 266 266 265 264 261 258 255 252 249 247 244 242
280 279 279 279 279 278 278 277 277 276 275 275 274 273 272 272 271 271 271 270 270 270 270 270 269 269 269 269 269 269 269 269 269 270 270 270 271 271 271 271 271 271 271 272 272 272 271 271 271 271 271 270 270 270 270 271 271 272 273 274 274 276 277 278 279 279 279 277 275 272 269 267 266 266 266 266 265 264 261 258 254 251 248 245 243 241
280 280 279 279 279 278 278 277 277 276 275 275 274 273 273 272 272 271 271 270 270 270 270 270 270 269 269 269 268 268 268 268 269 269 269 270 270 270 270 270 270 270 271 271 271 271 271 270 270 270 270 269 269 269 269 270 270 271 271 272 273 275 276 277 278 279 279 278 276 273 271 268 267 266 266 266 265 264 261 257 252 247 242 238 236 236
281 280 280 279 279 278 278 278 277 276 276 275 274 273 273 272 272 271 271 270 270 270 270 270 270 269 269 269 268 268 268 268 268 268 268 269 269 269 269 269 270 270 270 270 270 270 270 270 270 269 269 269 269 269 269 269 269 269 270 271 272 273 275 276 277 278 278 278 276 274 271 269 267 266 266 266 265 264 261 256 250 242 235 230 228 229
281 281 280 280 279 279 278 278 277 277 276 275 274 274 273 273 272 272 271 271 270 270 270 270 270 270 269 269 269 268 268 268 268 268 268 268 268 269 269 269 269 269 269 269 269 269 269 269 269 269 269 268 268 268 268 268 268 268 269 270 271 272 274 275 276 277 278 277 276 274 271 269 267 266 265 265 266 265 262 257 249 239 231 226 225 226
282 282 281 280 280 279 278 278 277 277 276 276 275 274 273 273 272 272 271 271 270 270 270 270 270 270 269 269 269 268 268 268 268 268 268 268 268 268 268 268 268 268 268 268 268 268 268 269 269 268 268 268 268 268 267 267 267 268 268 269 270 271 272 273 275 276 276 276 275 274 271 269 267 266 265 265 266 266 265 260 251 240 230 225 224 225
282 282 281 281 280 280 279 278 278 277 277 276 275 275 274 273 272 272 271 271 271 270 270 270 270 270 269 269 269 269 268 268 268 268 267 267 267 267 268 268 268 268 268 268 268 268 268 268 268 268 268 268 267 267 267 267 267 267 267 268 268 269 271 272 273 274 275 275 274 273 271 269 267 265 265 264 265 266 266 263 255 244 233 227 226 227
282 282 281 281 281 280 280 279 278 278 277 276 276 275 275 274 273 272 271 271 271 271 270 270 270 269 269 269 269 269 269 269 268 268 267 267 267 267 267 267 267 267 267 267 267 267 267 267 267 267 267 267 267 267 267 266 266 266 266 266 267 268 269 270 271 272 273 273 273 272 270 268 266 264 263 264 264 265 266 265 260 249 238 231 229 229
282 282 281 281 281 280 280 279 279 278 278 277 276 276 275 274 274 273 272 271 270 270 270 270 270 270 269 269 269 269 269 269 268 268 268 267 267 267 266 266 266 266 266 266 266 266 266 267 267 267 267 267 267 267 266 266 266 265 265 265 266 266 267 268 269 270 271 271 271 271 269 267 265 263 262 262 262 263 264 264 262 255 245 236 232 232
282 282 281 281 280 280 280 279 279 278 278 277 277 276 275 275 274 273 272 271 271 270 269 269 269 269 269 269 269 269 269 269 268 268 268 268 267 267 266 266 266 266 266 266 266 266 266 266 266 266 266 266 266 266 266 266 266 265 265 264 264 265 265 266 267 268 269 270 270 270 269 267 265 263 261 260 261 262 263 263 262 258 251 242 237 235
282 282 281 281 281 280 280 279 279 278 278 277 277 276 276 275 274 273 273 272 271 270 270 269 269 268 268 268 268 268 268 268 268 268 268 268 267 267 267 266 266 266 265 265 265 265 265 265 265 265 265 266 266 266 266 266 266 265 265 264 264 264 264 264 265 266 267 267 268 268 268 267 265 263 261 260 260 261 261 262 261 260 255 247 241 238
283 282 282 281 281 281 280 280 279 278 278 277 277 277 276 275 275 274 273 272 272 271 270 270 269 269 268 268 268 267 267 267 267 267 268 268 268 267 267 266 266 266 265 265 265 265 264 264 264 264 265 265 265 265 265 266 265 265 265 264 264 263 263 263 263 264 264 265 266 266 267 267 266 264 263 261 261 261 261 262 261 260 257 252 246 241
284 283 283 282 282 281 281 280 279 279 278 278 277 277 276 276 275 274 274 273 272 271 270 270 269 269 268 268 268 267 267 266 266 266 266 267 267 267 267 266 266 266 266 265 265 265 264 264 264 264 264 264 264 264 265 265 265 265 265 264 264 263 263 262 262 262 263 263 264 264 265 265 265 265 264 263 262 261 262 262 262 261 259 255 249 244
285 284 284 283 282 282 281 281 280 279 279 278 277 277 276 276 275 274 274 273 272 272 271 270 269 269 268 268 268 268 267 266 266 265 265 265 265 266 266 266 266 266 265 265 265 265 265 264 264 264 264 264 264 264 264 264 264 264 265 264 264 263 263 262 262 261 261 262 262 262 263 264 264 264 264 264 263 263 263 263 263 262 260 257 252 247
285 285 284 284 283 283 282 281 281 280 279 279 278 277 277 276 275 275 274 273 273 272 271 270 270 269 268 268 268 268 268 267 266 265 265 264 264 264 264 264 265 265 265 265 265 265 265 264 264 264 264 264 264 264 264 264 264 264 264 264 264 264 263 262 262 261 261 261 260 261 261 262 262 263 263 264 264 263 263 263 263 263 262 260 256 251
286 285 285 284 284 283 282 282 281 280 280 279 278 277 277 276 276 275 275 274 273 273 272 271 270 269 268 268 267 267 267 267 266 266 265 264 264 264 264 263 263 263 264 264 264 264 264 264 264 264 264 264 264 264 264 264 264 264 264 264 264 264 263 263 262 261 261 260 260 260 260 260 261 261 262 263 263 263 264 264 264 264 263 262 259 255
286 286 285 285 284 283 283 282 282 281 280 279 278 278 277 276 276 275 275 274 274 273 272 271 271 270 269 268 267 267 266 266 266 265 265 264 264 264 263 263 263 263 263 263 263 263 263 263 263 263 264 264 264 264 264 264 264 264 264 264 264 264 263 263 262 262 261 260 260 259 259 259 259 260 260 261 262 263 263 264 264 264 264 263 261 259
287 286 285 285 284 284 283 282 282 281 280 279 279 278 277 277 276 276 275 274 274 273 273 272 271 271 270 269 268 267 266 265 265 265 264 264 263 263 263 263 263 262 262 262 262 262 262 262 262 262 263 263 263 263 264 264 264 264 264 264 264 264 263 263 263 262 262 261 260 260 259 259 259 259 259 260 261 262 263 263 264 264 264 264 263 261
287 286 286 285 285 284 283 282 282 281 280 279 279 278 277 277 276 275 275 274 274 273 273 272 271 271 270 269 269 268 267 266 265 264 264 263 263 262 262 262 262 262 262 262 262 261 261 261 261 261 262 262 262 262 263 263 263 263 263 263 263 263 263 263 263 263 262 261 261 260 259 259 259 259 258 259 259 260 261 262 263 263 263 263 263 262
287 286 286 285 285 284 283 282 281 280 280 279 279 278 277 277 276 275 275 274 273 273 272 272 271 271 270 270 269 268 268 267 266 265 264 263 262 262 261 261 261 261 261 261 261 261 261 261 261 261 261 261 261 261 262 262 262 262 263 263 263 263 263 263 263 263 263 262 261 260 260 259 259 259 258 258 258 259 259 261 262 263 263 263 262 262
287 286 286 285 284 284 283 282 281 280 280 279 278 277 277 276 276 275 274 274 273 273 272 272 271 271 270 270 269 269 268 267 267 266 265 264 262 262 261 261 260 260 260 260 260 260 260 260 260 260 260 260 260 260 261 261 261 261 262 262 262 262 263 263 263 263 263 263 262 261 260 260 259 259 258 258 258 258 258 259 260 261 262 262 262 262
286 286 285 285 284 283 283 282 281 280 280 279 278 277 277 276 275 275 274 274 273 272 272 272 271 271 270 270 269 269 268 268 267 266 265 264 263 262 261 260 260 260 259 259 259 259 259 259 259 259 259 260 260 260 260 260 260 260 261 261 261 261 262 262 262 263 263 263 263 262 261 260 259 259 258 258 258 258 258 258 258 259 260 261 261 261
286 285 285 284 284 283 282 282 281 281 280 279 278 278 277 276 276 275 274 274 273 273 272 272 271 270 270 269 269 269 268 268 267 266 266 265 264 263 262 261 260 260 259 259 258 258 258 258 258 258 258 259 259 259 259 259 259 260 260 260 260 260 261 261 262 262 262 263 263 262 262 261 260 259 259 258 258 258 258 258 258 258 258 259 260 260
285 284 284 283 283 282 282 281 281 280 280 279 279 278 277 276 276 275 275 274 273 273 272 272 271 270 270 269 269 268 268 268 267 266 266 265 264 263 262 261 261 260 259 259 258 258 257 257 257 257 257 257 258 258 258 259 259 259 259 259 259 260 260 260 261 261 261 262 262 262 262 262 261 260 259 258 258 258 258 258 258 257 257 257 258 258
284 284 283 282 282 281 281 280 280 280 279 279 278 278 277 277 276 275 275 274 273 273 272 272 271 270 270 269 269 268 268 268 267 266 266 265 264 264 263 262 261 260 259 259 258 257 257 257 257 256 256 256 256 257 257 257 258 258 258 258 259 259 259 259 260 260 260 261 261 262 262 262 261 261 260 259 258 258 257 257 257 257 257 257 257 257
283 283 282 282 281 281 280 280 279 279 278 278 278 277 277 276 276 276 275 274 274 273 272 272 271 271 270 269 268 268 268 268 267 267 266 266 265 264 263 262 262 261 260 259 258 257 257 256 256 256 256 256 255 256 256 256 256 257 257 257 258 258 258 258 259 259 259 260 260 261 261 261 261 261 260 259 259 258 257 257 257 257 257 257 256 256
283 282 282 281 280 280 279 279 278 278 278 277 277 277 277 276 276 275 275 274 274 274 273 272 272 271 270 270 269 268 268 268 267 267 266 266 265 264 264 263 262 261 261 260 259 257 256 256 256 256 256 255 255 255 255 255 255 255 255 256 256 256 257 257 257 258 258 259 259 259 260 261 261 261 261 260 259 258 258 257 257 256 256 256 256 256
282 281 281 280 280 279 279 278 278 277 277 277 277 276 276 276 275 275 275 275 274 274 273 273 272 271 271 270 270 269 268 268 267 267 267 266 265 264 264 263 263 262 261 261 260 258 257 256 255 255 255 255 255 254 254 254 254 254 254 254 255 255 255 256 256 257 257 257 258 258 259 259 260 260 260 260 260 259 258 258 257 257 256 256 256 256
281 281 280 280 279 279 278 278 277 277 277 276 276 276 276 275 275 275 274 274 274 274 273 273 272 272 271 271 270 270 269 268 268 267 267 266 266 265 264 264 263 262 262 261 261 260 259 257 255 254 254 254 254 254 254 254 254 254 254 253 254 254 254 254 255 255 255 256 256 257 257 258 258 259 259 260 259 259 259 258 258 257 256 256 255 255
281 281 280 279 279 278 278 277 277 277 276 276 276 276 276 275 275 275 274 274 274 274 273 273 273 272 272 271 271 270 270 269 269 268 268 267 266 265 265 264 263 263 262 262 261 261 260 259 257 255 254 254 254 253 253 253 253 253 253 253 253 253 253 253 253 253 254 254 255 255 256 256 257 258 258 258 259 259 258 258 258 257 257 256 256 255
281 281 280 280 279 278 278 277 277 277 276 276 276 276 275 275 275 275 275 274 274 274 273 273 273 272 272 271 271 270 270 270 269 269 269 268 267 267 266 265 264 263 263 262 261 261 260 260 259 257 256 255 254 253 253 253 252 252 252 252 252 252 252 252 252 252 252 253 253 254 254 255 255 256 257 257 257 258 258 258 257 257 257 257 256 255
281 281 280 280 279 279 278 278 277 277 277 276 276 276 276 275 275 275 275 275 274 274 274 273 273 272 272 272 271 270 270 270 270 270 270 269 269 268 267 266 265 264 264 263 262 261 261 260 259 258 257 256 255 254 254 253 252 252 251 251 251 251 251 251 251 251 251 251 252 252 252 253 253 254 255 255 256 256 257 257 257 257 257 257 256 256
281 280 280 280 279 279 279 278 278 278 277 277 276 276 276 276 276 276 275 275 275 275 274 274 273 273 272 272 271 271 270 270 270 270 270 270 269 269 268 267 266 266 265 264 263 262 262 260 259 259 258 257 256 255 254 254 253 253 252 251 251 251 251 251 251 251 251 251 251 251 251 251 252 252 253 254 254 255 255 256 256 256 256 256 256 256
280 280 280 280 279 279 279 278 278 278 277 277 277 277 277 277 276 276 276 276 276 275 275 274 274 273 273 272 272 271 271 270 270 271 271 270 270 270 269 268 267 267 267 266 265 264 263 262 261 260 259 258 257 256 255 254 254 254 253 252 252 251 251 250 250 250 250 250 250 250 250 250 250 251 251 252 252 253 254 254 255 255 255 255 255 255
280 280 279 279 279 279 279 278 278 278 277 277 277 277 277 277 277 277 276 276 276 275 275 275 274 274 274 273 273 273 272 272 272 272 272 271 271 271 270 269 268 268 268 267 267 266 265 263 262 261 260 259 258 258 257 256 255 254 254 253 252 252 251 251 250 250 250 250 249 249 249 249 249 249 250 250 251 251 252 253 253 254 254 254 254 254
279 279 279 279 279 279 279 278 278 277 277 277 277 277 277 277 277 277 276 276 276 275 275 275 275 274 274 274 274 273 273 273 273 273 273 273 272 272 271 271 270 269 269 268 268 267 266 265 264 263 261 260 259 258 258 257 257 256 255 254 253 253 252 251 251 251 250 250 250 249 249 248 248 248 248 248 249 249 250 251 251 252 253 253 253 253
279 279 279 279 279 279 279 278 278 278 277 277 277 277 277 277 277 277 276 276 276 276 275 275 275 274 274 274 274 274 274 274 274 274 274 273 273 273 272 272 271 270 270 269 269 268 268 267 266 264 263 262 261 260 259 258 258 257 256 256 255 254 253 252 252 251 251 251 251 250 249 248 248 247 247 247 248 248 248 249 249 250 251 251 252 252
279 279 279 279 279 279 279 279 278 278 278 278 278 277 277 277 277 277 277 276 276 276 276 276 275 275 274 274 274 274 274 275 275 275 275 274 274 274 273 273 272 272 271 270 270 269 269 268 267 266 265 264 263 262 261 260 259 259 258 258 257 255 254 253 253 252 252 251 251 251 250 249 249 248 247 247 247 247 247 247 248 248 249 250 250 251
279 279 279 279 279 279 279 279 279 279 278 278 278 278 278 278 278 277 277 277 277 277 276 276 276 276 275 275 275 275 275 276 276 276 276 276 275 275 275 274 274 273 273 272 271 270 270 269 269 268 267 266 265 264 263 261 261 260 260 260 259 257 256 255 254 254 254 253 252 251 251 251 250 249 248 247 247 246 246 246 246 247 247 248 248 249
279 279 279 279 279 279 279 279 279 279 279 279 279 278 278 278 278 278 278 278 277 277 277 277 277 277 276 276 276 276 276 276 277 277 277 277 277 277 277 276 276 275 274 274 273 272 271 270 270 269 268 267 266 266 264 263 262 262 262 261 261 260 259 258 256 255 255 255 254 253 252 252 251 250 249 248 247 247 246 246 245 245 246 246 246 247
279 279 280 280 280 280 280 280 279 279 279 279 279 279 279 279 279 279 279 279 278 278 278 278 278 278 277 277 277 277 277 277 277 278 278 278 278 278 278 278 277 276 276 275 275 274 272 272 271 270 269 269 268 267 266 265 264 263 263 262 262 262 262 260 258 257 257 256 256 255 254 253 252 251 250 249 249 248 247 246 246 245 245 245 245 245
279 280 280 280 280 280 280 280 280 279 279 279 279 279 279 280 280 280 280 280 279 279 279 279 279 279 279 278 278 278 278 277 278 278 278 279 279 279 279 279 279 278 277 277 276 275 275 274 273 271 270 270 269 269 268 267 266 265 264 263 263 263 262 261 260 260 259 258 257 257 256 255 254 253 252 251 250 249 248 248 247 246 246 245 244 244
280 280 280 280 280 280 280 280 280 280 280 280 280 280 280 280 281 281 281 281 281 281 281 280 280 281 280 280 279 279 279 279 278 278 279 279 279 280 280 280 280 279 279 278 278 277 276 275 275 273 272 272 271 270 269 268 268 267 266 265 264 264 263 262 262 261 261 260 259 258 257 257 256 255 254 253 252 251 250 249 249 248 247 246 245 245
280 280 280 280 280 280 280 280 280 281 281 281 281 281 281 281 282 282 282 282 282 282 282 282 282 282 282 281 281 281 281 280 279 279 279 279 279 280 280 280 280 280 280 280 279 278 278 277 276 275 275 274 273 272 270 270 269 269 268 267 266 265 264 264 263 262 261 261 261 260 259 258 258 257 256 255 253 252 251 251 250 249 249 248 247 246
280 281 281 281 281 281 281 281 281 282 282 282 282 282 282 283 283 283 283 283 283 283 283 283 283 283 283 283 282 282 282 282 281 281 280 280 280 280 280 280 280 280 280 280 280 280 279 278 278 277 276 275 275 273 272 271 270 270 269 268 267 267 266 265 264 263 263 262 262 261 260 260 260 259 258 256 255 254 253 252 251 251 250 249 249 248
281 281 282 282 282 282 282 282 282 283 283 283 283 283 284 284 284 284 285 285 285 285 285 285 285 285 285 284 284 284 284 283 283 282 282 282 281 281 281 281 281 281 281 280 280 280 279 279 278 278 277 276 276 275 273 272 271 270 270 269 268 268 267 266 265 264 264 263 263 262 262 261 260 260 259 258 257 256 255 253 253 252 251 251 250 249
282 282 282 283 283 283 283 283 283 284 284 284 284 285 285 285 285 286 286 286 286 286 286 286 286 286 286 286 286 285 285 285 285 284 284 283 283 283 282 282 281 281 281 280 280 280 279 279 278 277 277 276 276 275 274 273 272 271 270 269 268 268 267 266 266 265 264 264 263 263 262 262 261 260 260 259 259 257 256 255 254 253 253 252 252 251
283 283 283 284 284 284 284 284 285 285 285 285 285 286 286 286 286 287 287 287 287 287 287 287 287 287 287 287 287 287 286 286 286 286 285 285 284 284 283 283 282 282 281 281 280 279 279 278 277 277 276 276 276 276 275 274 272 271 270 269 268 267 267 266 265 265 264 264 263 263 262 262 261 261 260 260 259 258 257 256 255 254 254 253 253 252